Location: Las Callecitas
(9.8750°N, 67.4611°W)
Time: 12:01:39
(UTC+00:00)

In-Cosmos 22 - Pass Details

Date: 14 April 2024
Orbit: 784 x 875 km, 81.2° (Epoch: 24 May)

Event Time Altitude Azimuth Distance (km) Brightness Sun altitude
Rises 09:28:04 0° 194° (SSW) 3,269 7.0 -13.3°
Reaches altitude 10° 09:30:28 10° 199° (SSW) 2,346 6.2 -12.8°
Maximum altitude 09:35:37 55° 276° (W) 953 4.2 -11.5°
Drops below altitude 10° 09:40:52 10° 353° (N) 2,386 6.6 -10.3°
Sets 09:43:20 0° 358° (N) 3,330 7.4 -9.7°
